TimeEST,TemperatureF,Dew PointF,Humidity,Sea Level PressureIn,VisibilityMPH,Wind Direction,Wind SpeedMPH,Gust SpeedMPH,PrecipitationIn,Events,Conditions,WindDirDegrees,DateUTC
12:15 AM,10.4,-2.2,57,30.32,10.0,North,8.1,-,N/A,,Clear,350,2014-03-04 05:15:00
12:35 AM,10.4,1.4,67,30.32,10.0,NNW,8.1,-,N/A,,Clear,340,2014-03-04 05:35:00
12:55 AM,10.4,1.4,67,30.32,10.0,North,8.1,-,N/A,,Clear,350,2014-03-04 05:55:00
1:15 AM,8.6,-0.4,67,30.32,10.0,NNW,8.1,-,N/A,,Clear,340,2014-03-04 06:15:00
1:35 AM,8.6,1.4,73,30.32,10.0,NNW,6.9,-,N/A,,Clear,340,2014-03-04 06:35:00
1:55 AM,8.6,-0.4,67,30.32,10.0,NNW,6.9,-,N/A,,Clear,340,2014-03-04 06:55:00
2:15 AM,8.6,-0.4,67,30.33,10.0,NNW,8.1,-,N/A,,Clear,340,2014-03-04 07:15:00
2:35 AM,10.4,-0.4,62,30.32,10.0,NNW,8.1,-,N/A,,Clear,340,2014-03-04 07:35:00
2:55 AM,8.6,-0.4,67,30.32,10.0,NNW,6.9,-,N/A,,Clear,340,2014-03-04 07:55:00
3:15 AM,8.6,-0.4,67,30.32,10.0,NNW,8.1,-,N/A,,Clear,340,2014-03-04 08:15:00
3:35 AM,8.6,-0.4,67,30.32,10.0,NNW,6.9,-,N/A,,Clear,340,2014-03-04 08:35:00
3:55 AM,8.6,-2.2,62,30.33,10.0,NNW,6.9,-,N/A,,Clear,340,2014-03-04 08:55:00
4:15 AM,8.6,-0.4,67,30.33,10.0,NNW,6.9,-,N/A,,Clear,340,2014-03-04 09:15:00
4:35 AM,8.6,-0.4,67,30.34,10.0,NNW,6.9,-,N/A,,Clear,340,2014-03-04 09:35:00
4:55 AM,8.6,-2.2,62,30.35,10.0,NNW,6.9,-,N/A,,Clear,340,2014-03-04 09:55:00
5:15 AM,8.6,-0.4,67,30.35,10.0,NNW,5.8,-,N/A,,Clear,340,2014-03-04 10:15:00
5:35 AM,6.8,-0.4,72,30.35,10.0,NNW,5.8,-,N/A,,Clear,340,2014-03-04 10:35:00
5:55 AM,6.8,-2.2,67,30.36,10.0,NNW,6.9,-,N/A,,Clear,340,2014-03-04 10:55:00
6:15 AM,6.8,-0.4,72,30.36,10.0,NNW,4.6,-,N/A,,Clear,340,2014-03-04 11:15:00
6:35 AM,6.8,-2.2,67,30.37,10.0,NNW,4.6,-,N/A,,Clear,330,2014-03-04 11:35:00
6:55 AM,6.8,-2.2,67,30.39,10.0,NW,5.8,-,N/A,,Clear,320,2014-03-04 11:55:00
7:15 AM,8.6,1.4,73,30.39,10.0,NNW,5.8,-,N/A,,Clear,340,2014-03-04 12:15:00
7:35 AM,10.4,-0.4,62,30.41,10.0,NNW,8.1,-,N/A,,Clear,330,2014-03-04 12:35:00
7:55 AM,12.2,1.4,62,30.42,10.0,NNW,10.4,-,N/A,,Clear,340,2014-03-04 12:55:00
8:15 AM,12.2,-0.4,57,30.42,10.0,North,8.1,-,N/A,,Clear,350,2014-03-04 13:15:00
8:35 AM,12.2,-0.4,57,30.42,10.0,North,5.8,-,N/A,,Clear,360,2014-03-04 13:35:00
8:55 AM,14.0,3.2,62,30.43,10.0,North,6.9,-,N/A,,Clear,360,2014-03-04 13:55:00
9:15 AM,15.8,3.2,58,30.42,10.0,North,6.9,-,N/A,,Clear,350,2014-03-04 14:15:00
9:35 AM,17.6,5.0,58,30.42,10.0,North,9.2,-,N/A,,Clear,10,2014-03-04 14:35:00
9:55 AM,17.6,5.0,58,30.42,10.0,NE,6.9,-,N/A,,Clear,50,2014-03-04 14:55:00
10:15 AM,17.6,6.8,63,30.41,10.0,North,4.6,-,N/A,,Clear,10,2014-03-04 15:15:00
10:35 AM,19.4,8.6,63,30.41,10.0,NE,6.9,-,N/A,,Clear,40,2014-03-04 15:35:00
10:55 AM,19.4,6.8,58,30.41,10.0,NE,4.6,-,N/A,,Clear,50,2014-03-04 15:55:00
11:15 AM,21.2,8.6,58,30.40,10.0,NNE,4.6,-,N/A,,Clear,30,2014-03-04 16:15:00
11:35 AM,21.2,6.8,54,30.39,10.0,NNE,3.5,-,N/A,,Clear,20,2014-03-04 16:35:00
11:55 AM,23.0,6.8,50,30.39,10.0,Calm,Calm,-,N/A,,Clear,0,2014-03-04 16:55:00
12:15 PM,23.0,6.8,50,30.37,10.0,Calm,Calm,-,N/A,,Clear,0,2014-03-04 17:15:00
12:35 PM,24.8,8.6,50,30.36,10.0,Calm,Calm,-,0.02,,Clear,0,2014-03-04 17:35:00
12:55 PM,24.8,6.8,46,30.35,10.0,Calm,Calm,-,0.05,,Clear,0,2014-03-04 17:55:00
1:15 PM,24.8,6.8,46,30.34,10.0,Calm,Calm,-,0.01,,Clear,0,2014-03-04 18:15:00
1:35 PM,26.6,10.4,51,30.33,10.0,Calm,Calm,-,0.01,,Clear,0,2014-03-04 18:35:00
1:55 PM,26.6,8.6,47,30.32,10.0,Calm,Calm,-,0.01,,Clear,0,2014-03-04 18:55:00
2:15 PM,26.6,6.8,43,30.31,10.0,Calm,Calm,-,N/A,,Clear,0,2014-03-04 19:15:00
2:35 PM,28.4,10.4,47,30.30,10.0,Calm,Calm,-,N/A,,Clear,0,2014-03-04 19:35:00
2:55 PM,28.4,10.4,47,30.30,10.0,Calm,Calm,-,N/A,,Clear,0,2014-03-04 19:55:00
3:15 PM,28.4,12.2,51,30.30,10.0,Calm,Calm,-,N/A,,Clear,0,2014-03-04 20:15:00
3:35 PM,28.4,12.2,51,30.30,10.0,Calm,Calm,-,N/A,,Clear,0,2014-03-04 20:35:00
3:55 PM,28.4,12.2,51,30.30,10.0,Calm,Calm,-,N/A,,Clear,0,2014-03-04 20:55:00
4:15 PM,28.4,14.0,55,30.29,10.0,Calm,Calm,-,N/A,,Clear,0,2014-03-04 21:15:00
4:35 PM,28.4,12.2,51,30.29,10.0,Calm,Calm,-,N/A,,Clear,0,2014-03-04 21:35:00
4:55 PM,28.4,14.0,55,30.28,10.0,Calm,Calm,-,N/A,,Clear,0,2014-03-04 21:55:00
5:15 PM,28.4,14.0,55,30.29,10.0,Calm,Calm,-,N/A,,Clear,0,2014-03-04 22:15:00
5:35 PM,28.4,15.8,59,30.28,10.0,Calm,Calm,-,N/A,,Clear,0,2014-03-04 22:35:00
5:55 PM,26.6,15.8,64,30.29,10.0,Calm,Calm,-,N/A,,Clear,0,2014-03-04 22:55:00
6:15 PM,24.8,15.8,69,30.29,10.0,Calm,Calm,-,N/A,,Clear,0,2014-03-04 23:15:00
6:35 PM,23.0,12.2,63,30.30,10.0,Calm,Calm,-,N/A,,Clear,0,2014-03-04 23:35:00
6:55 PM,19.4,10.4,68,30.30,10.0,Calm,Calm,-,N/A,,Clear,0,2014-03-04 23:55:00
7:15 PM,19.4,12.2,74,30.30,10.0,Calm,Calm,-,N/A,,Clear,0,2014-03-05 00:15:00
7:35 PM,17.6,12.2,79,30.30,10.0,Calm,Calm,-,N/A,,Clear,0,2014-03-05 00:35:00
7:55 PM,15.8,12.2,86,30.30,10.0,Calm,Calm,-,N/A,,Clear,0,2014-03-05 00:55:00
8:15 PM,15.8,8.6,73,30.30,10.0,Calm,Calm,-,N/A,,Clear,0,2014-03-05 01:15:00
8:35 PM,15.8,12.2,86,30.30,10.0,Calm,Calm,-,N/A,,Clear,0,2014-03-05 01:35:00
8:55 PM,15.8,12.2,86,30.31,10.0,Calm,Calm,-,N/A,,Clear,0,2014-03-05 01:55:00
9:15 PM,15.8,8.6,73,30.30,10.0,Calm,Calm,-,N/A,,Clear,0,2014-03-05 02:15:00
9:35 PM,15.8,10.4,79,30.29,10.0,Calm,Calm,-,N/A,,Clear,0,2014-03-05 02:35:00
9:55 PM,14.0,8.6,79,30.28,10.0,Calm,Calm,-,N/A,,Clear,0,2014-03-05 02:55:00
10:15 PM,15.8,10.4,79,30.28,10.0,Calm,Calm,-,N/A,,Partly Cloudy,0,2014-03-05 03:15:00
10:35 PM,15.8,12.2,86,30.28,10.0,Calm,Calm,-,N/A,,Clear,0,2014-03-05 03:35:00
10:55 PM,17.6,10.4,73,30.27,10.0,Calm,Calm,-,N/A,,Partly Cloudy,0,2014-03-05 03:55:00
11:15 PM,17.6,15.8,93,30.28,10.0,Calm,Calm,-,N/A,,Mostly Cloudy,0,2014-03-05 04:15:00
11:35 PM,17.6,12.2,79,30.27,10.0,Calm,Calm,-,N/A,,Overcast,0,2014-03-05 04:35:00
11:55 PM,17.6,14.0,86,30.26,10.0,Calm,Calm,-,N/A,,Overcast,0,2014-03-05 04:55:00